Theta_e
309 310 311 312 311 310 309 309 309 309 311 312 313 317 310 310 309 308 307 307 310 308 306 306 306 307 309 311 312 316 319 324 321 325 323 323 325 323 320 322 321 323 321
307 308 308 310 309 308 308 307 306 306 307 306 306 307 306 306 305 303 303 304 306 307 305 303 304 304 304 304 306 309 311 315 318 317 315 315 317 318 321 321 320 317 319
304 305 307 307 307 306 306 305 305 304 304 303 303 302 302 302 300 300 300 301 304 305 305 303 303 302 301 301 302 304 305 306 313 315 315 313 311 312 317 316 316 315 314
304 305 306 305 305 305 305 304 303 302 302 301 299 297 296 296 298 297 298 299 302 302 304 303 301 300 299 299 300 305 302 302 303 309 318 314 316 311 309 314 314 313 312
305 305 305 304 304 304 302 302 301 300 300 299 298 296 295 296 297 297 297 297 299 300 302 302 301 300 300 300 300 301 301 301 302 302 305 306 308 310 310 307 309 312 311
303 303 303 303 302 302 301 300 299 298 298 298 297 296 295 295 295 295 295 297 297 298 300 302 300 301 300 301 302 302 301 301 301 301 301 303 304 302 304 304 305 307 306
301 301 300 299 299 299 299 299 297 296 297 297 297 297 296 295 295 295 295 295 296 297 300 300 300 301 302 303 303 302 303 303 301 300 301 303 304 306 306 305 304 303 303
298 299 299 297 297 298 298 297 296 296 296 297 297 298 297 296 296 296 296 296 296 297 300 302 302 302 304 306 307 308 309 310 311 310 307 305 309 313 310 306 303 300 299
298 298 297 296 296 296 296 296 296 297 297 297 297 297 297 298 297 297 297 297 298 302 302 302 302 303 304 304 304 306 308 309 308 308 307 309 309 308 310 310 307 303 298
296 296 296 296 296 295 295 296 297 297 297 297 296 298 297 298 298 299 299 299 299 300 300 300 301 301 303 302 301 301 303 302 302 302 301 303 303 302 301 301 302 302 300
295 295 294 295 294 295 295 296 296 296 297 297 297 297 298 297 297 297 299 299 298 302 304 302 301 301 301 301 300 301 302 300 298 298 297 297 296 295 295 296 295 294 294
295 294 294 294 294 293 294 295 296 296 298 298 296 296 298 296 298 298 299 300 303 305 304 301 300 300 300 300 300 300 300 299 297 297 297 297 299 294 293 293 293 292 294
294 294 294 296 293 294 295 296 296 296 297 298 296 296 296 300 300 298 299 299 299 300 301 300 298 298 297 298 299 299 299 298 297 297 297 297 297 294 293 293 293 293 295
295 293 293 292 293 294 296 296 296 297 297 298 300 300 301 299 297 297 298 299 299 298 299 298 297 295 295 296 297 299 299 297 296 296 297 297 296 294 294 294 292 293 292
294 294 292 292 292 294 297 297 298 297 297 297 299 299 299 297 297 297 298 299 299 298 298 297 294 293 294 297 296 298 299 297 294 294 295 296 301 303 301 297 295 293 291
295 294 294 294 294 295 295 298 299 297 296 296 296 297 298 298 297 297 298 298 298 298 296 295 292 291 294 299 302 299 297 298 293 292 293 293 298 298 300 302 303 301 294
295 294 293 293 295 297 297 296 300 297 295 295 297 297 298 298 297 297 296 296 297 296 296 293 292 290 290 298 299 302 296 295 293 293 293 294 295 296 293 296 298 297 300
294 293 293 294 297 298 298 299 300 296 296 295 296 297 297 297 297 294 292 293 295 295 295 292 291 288 291 297 297 297 291 291 291 292 293 292 292 292 295 292 291 291 292
292 292 292 297 297 298 299 299 295 295 295 295 296 297 297 296 296 292 290 290 292 294 293 292 290 288 288 295 296 293 289 290 290 291 291 293 292 295 296 292 290 289 291
293 293 293 294 294 298 299 294 293 293 294 295 296 297 297 294 291 290 289 289 291 295 295 293 290 293 288 293 294 293 289 288 289 290 291 297 295 295 294 291 288 288 288
293 293 293 292 293 298 296 293 292 292 294 296 297 297 296 293 287 286 286 286 290 290 289 288 286 287 289 289 293 294 289 288 289 289 290 291 295 294 293 293 289 289 290
293 293 291 291 293 294 293 292 291 294 295 296 297 296 293 293 290 285 285 285 285 286 286 286 287 287 287 292 292 293 293 294 288 289 289 290 293 292 293 292 293 293 293
292 293 293 292 292 293 293 292 293 296 297 297 297 296 295 291 292 289 286 285 284 285 286 286 286 287 288 288 293 293 293 294 291 291 294 294 292 292 291 293 293 293 290
292 293 292 292 292 293 295 294 296 298 297 296 296 294 295 292 289 291 290 284 284 285 285 286 286 286 287 288 287 289 288 292 292 293 290 293 292 292 292 290 289 288 288
293 293 293 292 293 294 295 296 298 298 296 295 294 293 293 293 292 289 291 291 286 286 285 285 284 285 286 288 289 289 288 288 290 290 288 287 286 287 288 287 287 287 286
293 293 293 293 294 295 296 297 297 295 292 291 291 291 291 291 291 291 291 292 291 291 290 289 287 286 289 290 290 291 290 291 291 288 285 285 285 285 286 286 286 285 287
Wind_Speed
4 6 7 7 10 12 15 14 15 13 10 7 5 4 5 6 6 7 9 10 8 10 9 6 7 8 7 8 9 6 6 3 8 4 4 4 6 4 4 3 4 5 5
4 5 7 7 9 10 11 13 12 12 9 8 4 4 3 3 3 4 7 7 8 9 9 7 7 6 5 5 6 5 4 3 5 3 4 4 4 3 4 3 3 4 3
7 5 5 6 6 10 10 10 9 10 8 6 4 3 3 3 4 6 6 7 8 8 6 6 6 7 6 5 5 4 5 3 3 5 3 3 2 3 0 3 2 2 2
4 5 5 5 7 7 9 10 9 7 7 7 6 7 4 4 4 4 4 6 7 7 7 7 5 5 4 6 5 5 4 3 4 4 2 3 4 3 3 1 2 1 2
6 7 6 5 5 6 7 6 7 7 6 7 6 4 4 3 3 4 7 6 7 7 8 7 7 6 4 5 5 6 5 3 3 2 4 3 2 4 5 5 3 2 3
6 8 5 5 6 6 6 6 7 5 6 6 6 5 5 5 5 5 5 5 4 5 6 8 6 6 6 6 6 6 5 5 4 3 4 4 3 3 3 3 4 1 2
9 9 7 5 6 6 6 6 5 5 6 6 6 5 4 4 5 5 4 6 4 4 7 6 7 5 6 6 6 5 5 4 4 4 4 3 3 3 3 2 1 2 2
7 7 6 6 6 7 7 5 5 6 6 5 6 6 6 3 3 3 4 4 3 4 5 6 6 7 7 7 8 6 7 8 7 8 5 2 2 2 3 2 1 1 2
8 9 7 5 6 6 4 5 6 5 6 6 5 6 6 6 5 7 5 4 5 5 6 6 6 7 7 8 8 6 7 7 7 8 9 7 7 7 6 3 3 1 2
8 7 5 6 4 4 4 6 4 4 5 6 5 5 5 6 6 5 6 6 6 6 6 6 6 6 6 6 6 5 5 6 5 4 7 7 5 5 5 4 3 3 2
8 6 5 5 4 4 5 3 4 4 5 6 6 6 5 6 6 5 5 6 5 6 5 5 6 5 5 6 5 5 6 7 6 6 6 7 6 5 5 4 4 4 3
8 6 6 5 5 4 2 2 4 5 5 5 6 6 6 6 6 6 6 6 7 7 6 5 5 6 6 6 6 6 6 6 7 6 7 6 5 6 5 3 4 3 2
8 6 5 5 4 2 3 3 3 3 5 6 6 6 6 6 6 6 7 6 6 7 8 8 8 7 6 6 6 6 6 6 6 6 5 6 6 6 4 3 4 3 3
9 6 5 4 2 2 3 4 3 4 5 6 5 6 7 7 6 6 6 7 7 7 7 7 7 7 6 6 6 5 6 6 6 5 5 5 5 5 5 4 4 4 4
8 6 5 4 3 2 3 4 3 4 4 6 5 6 6 6 6 7 7 7 6 5 6 6 7 7 6 5 5 4 5 6 7 7 6 6 8 11 8 3 5 4 3
8 7 6 5 3 3 3 3 3 3 5 5 5 6 6 6 7 6 7 6 6 6 6 6 7 8 6 15 9 1 5 6 6 6 7 6 8 9 12 10 8 4 3
9 7 6 5 3 2 2 2 2 3 4 4 5 6 6 7 7 7 6 6 4 3 4 5 6 7 7 16 12 10 5 5 6 6 6 7 4 9 6 9 9 7 6
7 6 5 3 3 2 1 1 1 3 3 4 5 5 6 6 7 6 6 5 3 2 1 4 6 6 6 13 12 10 5 5 6 6 7 6 7 7 8 7 7 5 6
6 5 5 4 3 3 2 1 2 2 3 4 6 6 6 6 6 7 8 5 3 1 2 2 5 6 6 11 10 7 6 6 7 6 6 6 7 12 12 5 5 6 6
6 6 5 3 4 3 2 1 1 2 3 5 6 6 6 6 6 5 6 5 3 3 2 3 4 6 6 10 12 9 4 6 6 8 7 12 11 14 12 4 3 4 4
7 5 5 6 5 4 2 2 1 3 3 5 6 6 5 5 4 4 4 4 4 4 5 6 5 5 5 8 10 11 4 3 4 4 6 6 15 12 13 6 3 4 4
6 6 6 5 4 3 3 2 3 3 3 5 6 6 4 3 3 4 4 5 5 4 4 4 4 3 5 7 10 7 4 5 2 4 4 6 11 13 13 10 8 7 6
6 5 6 5 3 3 3 3 4 3 4 5 6 5 5 4 2 3 5 4 5 4 4 4 4 5 5 5 11 12 13 10 4 3 6 11 12 11 8 11 12 9 5
5 5 6 5 4 3 3 6 5 5 5 6 6 6 4 3 3 2 2 2 3 3 3 4 4 5 5 5 5 5 6 9 6 8 6 9 8 8 8 7 6 4 4
4 6 6 4 3 3 5 6 6 4 4 5 4 5 3 4 4 4 5 5 5 5 3 4 3 4 6 5 2 6 5 4 5 4 4 4 5 6 7 6 6 5 5
5 4 4 3 4 4 5 4 3 2 2 2 2 3 3 3 3 4 5 9 12 10 10 11 7 4 12 16 14 11 6 6 6 4 3 4 4 5 6 7 7 5 8
Wind_Direction
51 44 51 44 58 50 51 42 41 30 29 20 358 21 47 18 17 17 10 9 9 13 14 6 0 2 8 360 359 336 351 331 357 312 319 276 252 286 337 7 57 27 40
78 58 45 52 55 62 61 56 50 42 34 27 360 18 346 21 12 359 5 5 4 7 8 353 353 354 350 355 357 357 326 310 359 352 275 299 328 21 80 81 90 60 34
140 101 70 61 56 61 62 61 56 50 43 34 21 356 355 351 357 3 1 349 356 358 353 352 346 345 351 346 336 333 347 318 310 341 268 321 304 332 324 53 73 105 98
141 126 108 72 71 67 74 72 61 52 43 25 28 31 25 4 333 321 322 332 342 337 338 342 339 339 336 335 325 331 313 318 300 308 310 310 297 277 295 38 50 31 49
160 142 120 111 91 81 75 75 70 53 42 45 43 37 23 334 312 329 339 338 334 332 334 336 335 337 331 313 304 313 316 307 298 306 330 307 290 274 264 279 278 331 258
138 114 128 111 94 80 85 77 73 49 35 38 34 38 22 344 346 335 333 329 318 314 329 334 329 326 321 320 316 307 299 289 263 260 254 251 252 264 268 290 277 255 321
138 135 134 116 90 87 85 79 55 38 21 28 23 13 354 341 337 328 315 327 326 328 330 331 329 326 317 317 320 316 311 317 310 295 281 281 295 298 274 259 349 11 335
132 131 124 114 99 80 71 69 48 34 23 24 12 3 360 344 316 305 317 314 308 305 307 329 333 331 334 337 344 344 349 349 347 352 357 309 313 357 355 24 119 32 303
137 127 122 118 94 91 83 62 47 32 24 19 15 2 354 356 339 337 333 320 320 334 341 339 345 350 351 347 347 355 2 9 11 13 18 17 17 21 14 25 23 20 304
127 126 134 113 100 90 64 48 50 30 13 6 11 7 352 352 347 340 348 342 335 346 349 350 352 350 345 348 356 2 1 20 7 6 18 17 5 13 19 18 24 21 17
135 135 126 106 101 74 57 78 49 40 13 20 6 1 350 355 350 353 345 349 338 341 353 358 354 359 359 359 8 10 13 25 20 15 26 20 14 15 14 16 18 15 17
132 135 123 113 86 62 60 85 31 27 14 18 12 357 356 358 357 357 340 346 353 2 12 7 2 6 8 6 18 18 14 21 14 5 14 12 5 11 6 14 11 360 339
129 129 132 112 97 84 104 74 44 14 7 25 10 360 0 359 355 344 339 355 1 358 2 8 8 4 3 7 11 17 8 10 2 356 1 353 358 352 341 332 338 328 318
139 138 118 115 179 164 113 75 50 24 13 24 357 356 358 352 347 338 353 358 1 3 358 359 357 357 354 360 351 350 354 7 6 7 11 354 354 353 339 332 317 307 314
148 145 152 185 196 87 89 69 45 28 18 17 353 353 352 343 344 352 349 346 353 350 359 4 357 352 356 354 321 327 344 4 360 357 354 340 356 7 14 355 324 334 324
161 163 174 176 151 93 60 44 43 3 33 5 349 343 342 340 337 332 333 336 342 5 18 13 2 356 347 348 360 313 344 356 1 338 327 328 337 335 340 357 1 12 341
161 165 170 177 137 116 101 19 356 1 13 349 347 345 338 333 326 330 335 327 325 353 358 358 5 356 344 356 13 38 10 351 326 314 312 316 317 323 309 317 329 336 335
156 159 169 168 144 163 162 285 342 20 357 344 342 324 328 321 329 345 351 343 332 341 37 11 8 4 340 354 360 6 355 335 324 320 318 313 315 307 318 305 303 307 308
153 165 182 174 169 174 178 305 51 11 6 346 328 322 327 332 338 352 346 337 344 27 77 40 15 1 340 344 354 356 352 345 334 327 319 323 322 324 335 308 306 312 304
151 169 175 139 168 171 199 51 327 9 334 332 317 319 337 348 344 340 333 337 355 56 54 7 1 338 340 338 352 358 344 357 340 332 338 343 353 341 345 336 315 315 304
165 154 153 169 183 197 139 249 309 272 280 311 312 324 341 336 357 357 352 332 11 32 19 7 346 342 330 325 328 337 349 341 325 335 342 338 340 342 355 6 319 281 315
163 164 163 184 204 192 139 231 268 254 291 305 316 325 326 323 30 20 350 6 12 30 11 2 350 333 330 323 326 351 7 333 350 337 314 313 345 5 5 10 1 15 354
175 172 171 173 197 185 160 214 257 294 306 315 311 305 303 315 347 11 1 354 355 13 0 5 351 326 330 335 351 357 353 356 360 320 339 356 358 358 358 350 8 4 349
174 155 151 164 188 194 205 229 268 283 288 291 298 305 275 276 280 280 259 279 300 319 328 331 330 316 314 330 353 345 340 348 2 1 354 358 356 353 339 348 344 343 336
148 143 148 162 197 223 250 257 262 250 256 284 299 321 316 294 287 263 253 248 241 209 236 257 259 304 313 291 352 288 315 325 310 327 0 347 341 344 345 338 327 320 321
140 152 162 178 225 250 269 286 270 219 225 262 290 285 308 328 312 285 296 235 236 250 243 240 231 266 241 279 300 307 308 357 10 34 353 328 329 329 327 331 328 309 328